TimeCET,TemperatureF,Dew PointF,Humidity,Sea Level PressureIn,VisibilityMPH,Wind Direction,Wind SpeedMPH,Gust SpeedMPH,PrecipitationIn,Events,Conditions,WindDirDegrees,DateUTC
12:00 AM,46.4,39.2,76,30.09,6.2,North,2.3,-,N/A,,Mostly Cloudy,10,2013-02-16 23:00:00
12:30 AM,46.4,39.2,76,30.06,6.2,Variable,2.3,-,N/A,,Mostly Cloudy,0,2013-02-16 23:30:00
1:00 AM,48,39,61,30.08,,NNE,4.6,,,,,20,2013-02-17 00:00:00
1:00 AM,46.4,37.4,71,30.06,6.2,North,3.5,-,N/A,,Mostly Cloudy,10,2013-02-17 00:00:00
1:30 AM,46.4,37.4,71,30.06,6.2,Variable,1.2,-,N/A,,Mostly Cloudy,0,2013-02-17 00:30:00
2:00 AM,46.4,37.4,71,30.06,6.2,Variable,2.3,-,N/A,,Mostly Cloudy,0,2013-02-17 01:00:00
2:30 AM,46.4,39.2,76,30.06,6.2,Calm,Calm,-,N/A,,Mostly Cloudy,0,2013-02-17 01:30:00
3:00 AM,46.4,39.2,76,30.06,6.2,NNE,1.2,-,N/A,,Mostly Cloudy,20,2013-02-17 02:00:00
3:30 AM,46.4,39.2,76,30.04,6.2,North,1.2,-,N/A,,Mostly Cloudy,360,2013-02-17 02:30:00
4:00 AM,46.4,39.2,76,30.04,6.2,Variable,1.2,-,N/A,,Mostly Cloudy,0,2013-02-17 03:00:00
4:30 AM,46.4,41.0,81,30.04,6.2,Calm,Calm,-,N/A,,Mostly Cloudy,0,2013-02-17 03:30:00
5:00 AM,46.4,41.0,81,30.04,6.2,Calm,Calm,-,N/A,,Mostly Cloudy,0,2013-02-17 04:00:00
5:30 AM,46.4,39.2,76,30.04,6.2,Calm,Calm,-,N/A,,Mostly Cloudy,0,2013-02-17 04:30:00
6:00 AM,46.4,39.2,76,30.01,6.2,Calm,Calm,-,N/A,,Mostly Cloudy,0,2013-02-17 05:00:00
6:30 AM,46.4,41.0,81,30.01,6.2,Calm,Calm,-,N/A,,Mostly Cloudy,0,2013-02-17 05:30:00
7:00 AM,47,42,75,30.01,16,Calm,Calm,,,,Mostly Cloudy,,2013-02-17 06:00:00
7:00 AM,46.4,41.0,81,30.01,6.2,Calm,Calm,-,N/A,,Mostly Cloudy,0,2013-02-17 06:00:00
7:30 AM,46.4,41.0,81,30.01,6.2,NNE,3.5,-,N/A,,Mostly Cloudy,20,2013-02-17 06:30:00
8:00 AM,46.4,39.2,76,30.01,6.2,North,2.3,-,N/A,,Overcast,10,2013-02-17 07:00:00
8:30 AM,46.4,39.2,76,30.01,6.2,NNE,3.5,-,N/A,,Overcast,20,2013-02-17 07:30:00
9:00 AM,46.4,39.2,76,30.01,6.2,NNE,3.5,-,N/A,,Overcast,20,2013-02-17 08:00:00
9:30 AM,46.4,39.2,76,30.01,6.2,NNE,4.6,-,N/A,,Overcast,20,2013-02-17 08:30:00
10:00 AM,48.2,39.2,71,30.01,6.2,NNE,3.5,-,N/A,,Overcast,20,2013-02-17 09:00:00
10:30 AM,48.2,39.2,71,30.01,6.2,Variable,2.3,-,N/A,,Overcast,0,2013-02-17 09:30:00
11:00 AM,48.2,39.2,71,30.01,6.2,Variable,1.2,-,N/A,,Overcast,0,2013-02-17 10:00:00
11:30 AM,48.2,39.2,71,30.01,6.2,Calm,Calm,-,N/A,,Overcast,0,2013-02-17 10:30:00
12:00 PM,50.0,39.2,66,30.01,6.2,Calm,Calm,-,N/A,,Mostly Cloudy,0,2013-02-17 11:00:00
12:30 PM,51.8,41.0,67,30.01,6.2,ESE,1.2,-,N/A,,Mostly Cloudy,110,2013-02-17 11:30:00
1:00 PM,54,42,54,29.97,12,SSW,1.2,,,,Overcast,210,2013-02-17 12:00:00
1:00 PM,51.8,41.0,67,29.98,6.2,Calm,Calm,-,N/A,,Mostly Cloudy,0,2013-02-17 12:00:00
1:30 PM,51.8,41.0,67,29.98,6.2,Variable,2.3,-,N/A,,Mostly Cloudy,0,2013-02-17 12:30:00
2:00 PM,51.8,42.8,71,29.95,6.2,Variable,2.3,-,N/A,,Mostly Cloudy,0,2013-02-17 13:00:00
2:30 PM,51.8,42.8,71,29.95,6.2,SSE,3.5,-,N/A,,Mostly Cloudy,160,2013-02-17 13:30:00
3:00 PM,51.8,42.8,71,29.95,6.2,ESE,3.5,-,N/A,,Mostly Cloudy,110,2013-02-17 14:00:00
3:30 PM,51.8,42.8,71,29.92,6.2,SE,5.8,-,N/A,,Mostly Cloudy,130,2013-02-17 14:30:00
4:00 PM,51.8,42.8,71,29.92,6.2,ESE,5.8,-,N/A,,Scattered Clouds,120,2013-02-17 15:00:00
4:30 PM,51.8,42.8,71,29.92,6.2,SE,5.8,-,N/A,,Scattered Clouds,130,2013-02-17 15:30:00
5:00 PM,51.8,42.8,71,29.92,6.2,SE,6.9,-,N/A,,Mostly Cloudy,140,2013-02-17 16:00:00
5:30 PM,51.8,42.8,71,29.92,6.2,SE,5.8,-,N/A,,Mostly Cloudy,130,2013-02-17 16:30:00
6:00 PM,50.0,42.8,76,29.92,6.2,SE,3.5,-,N/A,,Mostly Cloudy,130,2013-02-17 17:00:00
6:30 PM,50.0,42.8,76,29.92,6.2,SE,4.6,-,N/A,,Mostly Cloudy,140,2013-02-17 17:30:00
7:00 PM,52,45,68,29.93,11,ESE,2.3,,,,Overcast,110,2013-02-17 18:00:00
7:00 PM,50.0,42.8,76,29.92,6.2,ESE,2.3,-,N/A,,Mostly Cloudy,120,2013-02-17 18:00:00
7:30 PM,50.0,42.8,76,29.92,6.2,Variable,1.2,-,N/A,,Mostly Cloudy,0,2013-02-17 18:30:00
8:00 PM,50.0,44.6,82,29.92,6.2,Variable,1.2,-,N/A,,Mostly Cloudy,0,2013-02-17 19:00:00
8:30 PM,50.0,44.6,82,29.92,6.2,North,1.2,-,N/A,,Mostly Cloudy,10,2013-02-17 19:30:00
9:00 PM,50.0,42.8,76,29.92,6.2,North,2.3,-,N/A,,Mostly Cloudy,10,2013-02-17 20:00:00
9:30 PM,48.2,42.8,82,29.92,6.2,Variable,2.3,-,N/A,,Mostly Cloudy,0,2013-02-17 20:30:00
10:00 PM,48.2,42.8,82,29.92,6.2,North,4.6,-,N/A,,Mostly Cloudy,10,2013-02-17 21:00:00
10:30 PM,48.2,42.8,82,29.92,6.2,North,4.6,-,N/A,,Mostly Cloudy,10,2013-02-17 21:30:00
11:00 PM,48.2,42.8,82,29.92,6.2,North,4.6,-,N/A,,Mostly Cloudy,10,2013-02-17 22:00:00
11:30 PM,48.2,44.6,87,29.92,6.2,Variable,2.3,-,N/A,,Mostly Cloudy,0,2013-02-17 22:30:00